Location: Bennemühlen
(52.5740°N, 9.7135°E)
Time: 06:28:57
(UTC+00:00)

A-11 Canister half - Pass Details

Date: 25 February 2026
Orbit: 1512 x 1687 km, 47.2° (Epoch: 8 March)

Event Time Altitude Azimuth Distance (km) Brightness Sun altitude
Rises 00:21:45 0° 285° (WNW) 4,921 11.6 -45.5°
Enters shadow 00:22:34 - 283° (WNW) 4,678 11.5 -45.5°
Reaches altitude 10° 00:25:14 10° 278° (W) 3,914 - -45.4°
Maximum altitude 00:34:02 37° 216° (SW) 2,329 - -44.9°
Drops below altitude 10° 00:42:34 10° 153° (SSE) 3,784 - -44.4°
Sets 00:45:53 0° 145° (SE) 4,741 - -44.2°
